Location: Aiyetoro Iyawo Ogun
(8.2500°N, 4.3500°E)
Time: 01:19:10
(UTC+00:00)

Daily predictions for brighter satellites

Satellite Brightness Start Highest point End
(mag) Time Altitude Azimuth Time Altitude Azimuth Time Altitude Azimuth
Cosmos 2322 Rocket 3.8 02:40:10 30° E 02:40:10 30° E 02:44:13 10° NE
Cosmos 2297 Rocket 4.2 02:37:20 10° N 02:39:14 21° N 02:39:14 21° N
CZ-3 R/B 4.2 02:41:44 46° WSW 02:57:34 81° NNW 03:09:50 10° ENE
SL-16 R/B 2.5 03:07:03 61° NNE 03:07:03 61° NNE 03:11:41 10° NNE
Cosmos 2221 4.4 03:02:24 10° NNE 03:06:07 28° E 03:06:28 27° E
H-2A R/B 3.9 03:13:07 25° N 03:13:07 25° N 03:14:58 10° N
Cosmos 2227 Rocket 3.3 03:12:41 10° NNW 03:15:35 32° NNW 03:15:35 32° NNW
Centaur AC-72 3.9 03:17:33 40° WSW 03:24:01 76° SSE 03:30:37 10° ENE
SL-8 Rocket 4.2 03:21:29 34° SSE 03:24:18 67° E 03:30:34 10° N
MSX 4.2 03:22:40 10° N 03:27:20 46° NW 03:27:20 46° NW
STARLINK-1276 4.3 03:31:00 51° NNE 03:31:00 51° NNE 03:34:09 10° NE
STARLINK-1305 4.1 03:35:46 55° NNE 03:35:46 55° NNE 03:39:05 10° NNE
Cosmos 1408 4.0 03:38:57 30° N 03:38:57 30° N 03:40:55 10° N
Lacrosse 4 Rocket 3.9 03:35:53 10° NNE 03:39:08 22° ENE 03:42:20 10° ESE
STARLINK-1262 4.0 03:40:33 56° N 03:40:33 56° N 03:44:02 10° NNE
Meteor 1-27 4.1 03:35:41 10° NNW 03:41:07 59° W 03:41:31 57° WSW
Sea Lan Dem Rocket 4.2 03:38:49 37° SW 03:41:50 53° SSE 04:55:14 10° E
CZ-4B R/B 3.5 03:42:16 10° SE 03:44:51 24° ENE 03:47:24 10° NNE
STARLINK-1300 4.0 03:45:20 52° NNW 03:45:20 52° NNW 03:48:57 10° NNE
Cosmos 2360 Rocket 2.3 03:42:25 31° S 03:45:07 70° ESE 03:50:41 10° NNE
Ariane H10 4.2 03:49:33 17° SSE 03:49:33 17° SSE 03:50:33 10° SE
Cosmos 1484 Rocket 4.5 03:45:28 10° NE 03:49:02 32° E 03:52:27 11° SSE
STARLINK-1295 4.0 03:50:07 47° NW 03:50:07 47° NW 03:53:51 10° NNE
Ariane H10+ 2.9 03:51:23 18° SSE 03:51:23 18° SSE 03:53:19 10° ESE
Cosmos 1825 2.0 03:51:22 73° NW 03:51:22 73° NW 03:54:54 10° N
Cosmos 1937 Rocket 4.3 03:46:49 10° NNW 03:50:14 33° WNW 03:50:14 33° WNW
Cosmos 2285 Rocket 4.1 03:46:11 10° NNW 03:52:15 51° W 03:58:19 10° S
ARIANE 5 R/B 4.4 03:42:38 27° WSW 03:52:47 60° S 03:57:14 10° ESE
IUS-26 SRM-1 2.4 03:53:28 74° S 03:53:37 77° SSE 04:00:07 10° ENE
Cosmos 1842 Rocket 4.4 03:49:50 10° NNW 03:52:55 35° NW 03:52:55 35° NW
STARLINK-1287 4.2 03:54:56 41° NW 03:54:56 41° NW 03:58:46 10° NNE
Meteor 2-2 Rocket 4.2 03:53:09 10° N 03:59:08 74° W 04:05:04 10° S
ADEOS 3.8 03:56:02 10° N 04:01:02 49° WNW 04:02:50 35° SW
Okean 3 Rocket 3.5 03:59:57 33° SSW 04:01:55 73° W 04:06:24 10° N
Ariane H10+ 4.0 04:02:29 22° SSW 04:04:30 28° SSE 04:15:08 10° ESE
ATLAS 3B CENTAUR R/B 2.1 04:05:55 20° NNW 04:07:17 36° NE 04:11:12 10° ESE
Cosmos 2366 rocket 4.0 04:03:48 19° SSW 04:08:12 59° W 04:14:16 10° N
CZ-2C R/B 3.2 04:05:13 10° NNW 04:09:53 35° WNW 04:11:28 29° WSW
Cosmos 2219 Rocket 3.8 04:06:00 10° SSE 04:10:56 32° ESE 04:15:51 10° NE
STARLINK-53 4.3 04:11:45 20° S 04:14:08 47° SE 04:17:56 10° NE
Cosmos 2237 4.4 04:12:15 24° SW 04:15:25 51° WNW 04:20:55 10° N
Delta 2 Rocket 4.4 04:13:21 23° W 04:17:02 52° NNW 04:23:29 10° NE
MAQSAT/ARIANE V 4.2 04:16:21 10° S 04:18:18 13° SE 04:21:39 10° ESE
Spot 2 3.8 04:15:44 10° N 04:19:44 79° WNW 04:23:38 11° SSW
FUSE 4.2 04:17:49 24° W 04:21:03 63° NNW 04:26:23 10° ENE
Cosmos 2322 Rocket 3.6 04:22:02 17° W 04:23:07 18° WNW 04:26:54 10° NNW
STARLINK-1017 4.5 04:23:30 12° SSW 04:27:07 46° ESE 04:31:04 10° NE
COSMOS 2428 3.8 04:23:25 10° S 04:28:49 45° ESE 04:34:12 10° NNE
SWIFT 3.8 04:26:39 10° NW 04:30:26 33° NNE 04:34:14 10° E
STARLINK-1023 4.3 04:27:13 12° SSW 04:31:00 52° ESE 04:35:03 10° NE
Cosmos 1821 Rocket 4.3 04:25:53 10° S 04:32:15 76° E 04:38:37 10° N
Cosmos 1408 Rocket 3.5 04:28:56 10° SSW 04:33:17 64° W 04:37:35 10° N
STARLINK-25 3.4 04:33:29 14° SSW 04:36:43 86° SE 04:40:33 10° NE
STARLINK-1007 4.0 04:33:04 11° SSW 04:37:02 63° SE 04:41:07 10° NE
Meteor PRIRODA 3.5 04:34:04 10° N 04:37:43 74° WNW 04:41:21 10° SSW
GPS 2-12 Rocket1 3.3 04:36:47 12° W 04:41:06 52° SSW 04:45:47 10° SE
STARLINK-1048 3.8 04:37:53 10° SSW 04:42:00 74° SE 04:46:07 10° NE
Cosmos 2263 Rocket 2.9 04:36:56 10° N 04:42:24 59° ENE 04:47:50 10° SSE
SWARM C 4.4 04:41:03 10° N 04:44:22 86° W 04:47:41 10° S
SWARM A 4.1 04:41:10 10° N 04:44:29 71° W 04:47:47 10° S
Meteor 2-3 Rocket 3.8 04:39:37 10° SSW 04:45:15 62° W 04:50:49 10° N
Cosmos 1727 Rocket 4.3 04:39:40 10° N 04:45:48 73° E 04:51:57 10° S
STARLINK-1049 3.6 04:42:51 10° SSW 04:47:00 86° ESE 04:51:07 10° NE
Cosmos 2227 4.3 04:41:40 10° NNW 04:47:25 85° ENE 04:53:10 10° SSE
PSLV R/B 4.3 04:45:15 10° SSE 04:49:16 69° ENE 04:53:17 10° N
STARLINK-1051 3.6 04:47:48 10° SW 04:51:56 81° NW 04:56:04 10° NNE
Meteor 1-31 Rocket 4.3 04:49:30 10° NNW 04:52:11 19° WNW 04:54:53 10° WSW
GPS 2-04 Rocket1 2.8 04:48:43 10° WNW 04:52:53 68° SW 04:57:01 10° SE
ARIANE 5 R/B 2.0 04:51:08 11° WSW 04:52:55 29° S 04:57:32 10° ESE
SJ-12 4.2 04:49:02 10° N 04:53:00 50° WNW 04:57:01 10° SSW
STARLINK-81 3.7 04:49:32 10° SW 04:53:24 56° NW 04:57:15 10° NNE
ARIANE 5 R/B 1.9 04:51:17 11° WSW 04:54:00 57° S 05:01:17 10° E
ATLAS 5 CENTAUR R/B 3.9 04:51:58 10° SSE 04:54:59 20° ESE 04:57:55 10° ENE
STARLINK-1234 4.1 04:52:40 10° WNW 04:55:09 22° WSW 04:57:39 10° S
STARLINK-54 4.0 04:51:28 10° SW 04:55:15 44° NW 04:59:02 10° NNE
STARLINK-1228 4.3 04:53:00 10° WNW 04:55:39 22° WSW 04:58:17 10° S
STARLINK-1212 3.4 04:53:40 10° NW 04:56:32 35° WSW 04:59:25 10° SSE
STARLINK-77 3.8 04:52:52 10° SW 04:56:42 50° NW 05:00:31 10° NNE
STARLINK-1105 3.4 04:54:08 10° NW 04:56:59 35° WSW 04:59:51 10° SSE
STARLINK-1209 4.4 04:55:30 10° WNW 04:57:51 19° WSW 05:00:11 10° S
STARLINK-1247 3.5 04:55:05 10° WNW 04:57:56 34° SW 05:00:48 10° S
STARLINK-1227 3.5 04:55:32 10° WNW 04:58:22 33° SW 05:01:11 10° S
H-2A R/B 3.1 04:54:22 10° N 04:58:25 40° WNW 05:02:36 10° SSW
CZ-3A R/B 4.3 04:51:45 10° W 04:58:32 65° NNW 05:33:33 10° ENE
STARLINK-1226 3.6 04:56:25 10° WNW 04:59:14 32° SW 05:02:04 10° S
STARLINK-1215 3.6 04:57:23 10° WNW 05:00:11 31° WSW 05:03:00 10° S
STARLINK-79 4.1 04:57:53 10° SW 05:01:38 42° NW 05:05:23 10° NNE
Cosmos 2333 Rocket 2.3 04:56:14 10° SSW 05:01:48 62° WNW 05:07:21 10° N
STARLINK-1028 3.8 04:57:48 10° SW 05:01:52 59° NW 05:05:56 10° NNE
STARLINK-1217 3.7 04:59:11 10° WNW 05:01:56 29° WSW 05:04:42 10° S
STARLINK-1229 3.8 05:00:08 10° WNW 05:02:52 28° WSW 05:05:36 10° S
STARLINK-71 4.4 04:59:12 10° WSW 05:02:54 35° NW 05:06:35 10° NNE
STARLINK-78 4.1 04:59:35 10° SW 05:03:17 39° NW 05:06:59 10° NNE
STARLINK-1270 3.8 05:01:01 10° WNW 05:03:44 27° WSW 05:06:27 10° S
BREEZE-M DEB (TANK) 3.7 05:00:29 10° SW 05:03:45 76° NW 05:14:05 10° NNE
STARLINK-57 4.3 05:01:26 10° WSW 05:05:03 34° NW 05:08:40 10° NNE
STARLINK-1232 4.3 05:01:06 10° NNW 05:05:10 60° NE 05:09:16 10° SE
Cosmos 1346 Rocket 3.0 05:01:58 10° S 05:05:59 79° E 05:09:59 10° N
